Hourly Data Report for October 12, 2013

All times are specified in Local Standard Time (LST). Add 1 hour to adjust for Daylight Saving Time where and when it is observed.

POND INLET A
NUNAVUT

72°41'22.000" N
77°58'08.000" W
61.60 m
2403206
71095
YIO

Download Data

Hourly Data (October 2013)
Hourly Data Report for October 12, 2013
Temp Definition
°C
Dew Point Temp Definition
°C
Rel Hum Definition
%
Wind Dir Definition
10's deg

Wind Spd Definition
km/h
Visibility Definition
km
Stn Press Definition
kPa
Hmdx Definition


Wind Chill Definition


Weather Definition


TIME
00:00 Legend Double Dagger -5.9 -8.5 82 17 8 8.1 100.72   -10 LegendNANA
01:00 Legend Double Dagger -5.4 -6.4 93 17 9 2.4 100.70   -9 LegendNANA
02:00 Legend Double Dagger -5.1 -5.8 95   0 2.4 100.65     LegendNANA
03:00 Legend Double Dagger -5.2 -5.7 96 LegendMM 4 16.1 100.62   -7 LegendNANA
04:00 Legend Double Dagger -4.9 -5.9 93 13 11 9.7 100.53   -9 LegendNANA
05:00 Legend Double Dagger -4.8 -5.5 95   0 16.1 100.50     LegendNANA
06:00 Legend Double Dagger -5.3 -6.0 95 14 5 16.1 100.45   -8 LegendNANA
07:00 Legend Double Dagger -5.3 -6.0 95 8 5 16.1 100.39   -8 LegendNANA
08:00 Legend Double Dagger -5.5 -6.9 90 19 4 16.1 100.34   -7 LegendNANA
09:00 Legend Double Dagger -6.3 -7.4 92 15 8 16.1 100.28   -10 LegendNANA
10:00 Legend Double Dagger -4.1 -6.1 86   0 16.1 100.26     LegendNANA
11:00 Legend Double Dagger -3.8 -5.4 89 19 5 16.1 100.21   -6 LegendNANA
12:00 Legend Double Dagger -3.3 -4.6 91 6 5 16.1 100.20   -5 LegendNANA
13:00 Legend Double Dagger -2.3 -5.0 82 8 5 16.1 100.15   -4 LegendNANA
14:00 Legend Double Dagger -2.6 -4.2 89 LegendMM 4 16.1 100.12   -4 LegendNANA
15:00 Legend Double Dagger -2.1 -4.3 85 LegendMM 4 16.1 100.11   -4 LegendNANA
16:00 Legend Double Dagger -2.5 -4.4 87 1 4 16.1 100.09   -4 LegendNANA
17:00 Legend Double Dagger -2.9 -4.2 91 20 8 16.1 100.09   -6 LegendNANA
18:00 Legend Double Dagger -2.4 -5.1 82   0 16.1 100.11     LegendNANA
19:00 Legend Double Dagger -2.7 -4.9 85 14 5 16.1 100.12   -5 LegendNANA
20:00 Legend Double Dagger -2.5 -4.9 84 LegendMM 4 16.1 100.14   -4 LegendNANA
21:00 Legend Double Dagger -2.3 -4.0 88   0 2.0 100.18     LegendNANA
22:00 Legend Double Dagger -2.5 -2.9 97 35 5 2.0 100.19   -4 LegendNANA
23:00 Legend Double Dagger -2.7 -3.1 97 7 4 1.6 100.20   -4 LegendNANA

Notes on Data Quality.

Legend

  • E = Estimated
  • M = Missing
  • NA = Not Available
  • ‡ = Partner data that is not subject to review by the National Climate Archives
Date modified: